sat.trackr.live / text

‹ back to catalog

STARLINK-32107

NORAD 59694 · 2024-086N

PAYLOAD ACTIVE UNKNOWN

§ Identity

Operator
Country
US
Launch date
2024-05-08
Launch site
AFETR
Launch vehicle
Mass (kg)
RCS (m²)

Purposes: comms

External: N2YO · Heavens-Above · Gunter

§ Orbital elements

Epoch: 2026-05-24T23:01:36.619968Z

Period
94.27 min
Inclination
43.0036°
Eccentricity
0.0001022
Mean motion
15.27582918 rev/d
Perigee alt
482.3 km
Apogee alt
483.7 km
Semi-major
6,861.2 km
B*
5.4360e-5
RAAN
349.4209°
Arg perigee
255.8666°
Mean anomaly
104.2072°
Rev number
11,577

§ Raw data

STARLINK-321071 59694U 24086N   26144.95945162  .00001234  00000+0  54360-4 0  99922 59694  43.0036 349.4209 0001022 255.8666 104.2072 15.27582918115770

JSON: /api/v1/satellites/59694 · /tle

For live sub-satellite position, see the globe view (requires WebGL).

§ Visibility from observer

Set your observer location to see the next 7 days of passes ≥ 10°. The values pass through the URL so the page stays shareable.

No JS? Fill the form by hand. The geolocation button needs JavaScript.